Regional Weather Roundup
Issued by NWS

Home | Current Version | Previous Version | Graphics & Text | Print | Product List | Glossary Off
Versions: 1 2 3 4 5 6 7 8 9 10 11 12 13 14 15 16 17 18 19 20 21 22 23 24 25 26 27 28 29 30 31 32 33 34 35 36 37 38 39 40 41 42 43 44 45 46 47 48 49 50

000
ASUS43 KDMX 270007
RWRIA

WEATHER ROUNDUP FOR IOWA
NATIONAL WEATHER SERVICE DES MOINES IA
700 PM CDT SUN APR 26 2015

NOTE: "FAIR" INDICATES FEW OR NO CLOUDS BELOW 12,000 FEET WITH NO
SIGNIFICANT WEATHER AND/OR OBSTRUCTIONS TO VISIBILITY.

* - THESE STATIONS ARE NOT NWS STATIONS...THUS NOT UNDER NWS
QUALITY CONTROL.  THEY ALSO DO NOT REPORT WEATHER SUCH
AS PRECIPITATION OR FOG.

IAZ001>003-012>014-020>022-031>034-043>046-270100-
   NORTHWEST IOWA

CITY           SKY/WX    TMP DP  RH WIND       PRES   REMARKS
CARROLL *      SUNNY     61  28  29 E12       30.02R
CHEROKEE *     SUNNY     64  32  31 E7        30.02S
DENISON *      SUNNY     61  32  33 E13       30.00S
LE MARS *      SUNNY     66  30  26 NE8       30.02S
ORANGE CITY *  SUNNY     64  30  27 E7        30.02S
SHELDON *      SUNNY     64  28  25 NE10G20   30.02R
SIOUX CITY     SUNNY     66  30  26 E10       30.01S
6HR MIN TEMP:  61; 6HR MAX TEMP:  68;

SPENCER        SUNNY     65  32  29 NE14      30.03S
6HR MIN TEMP:  62; 6HR MAX TEMP:  67;

STORM LAKE *   SUNNY     63  32  31 E10G16    30.03S
$$

IAZ055>058-069>071-079>083-090>094-270100-
   SOUTHWEST IOWA

CITY           SKY/WX    TMP DP  RH WIND       PRES   REMARKS
ATLANTIC *     SUNNY     61  32  33 NE13      30.01S
AUDUBON *      SUNNY     61  28  29 E10       30.03S
CLARINDA *     SUNNY     63  32  31 NE13G18   30.01R
COUNCIL BLFS * SUNNY     61  37  41 E9        30.01S
CRESTON *      SUNNY     59  32  36 NE13G20   30.00S
HARLAN  *      SUNNY     61  34  36 NE12      30.05S
LAMONI         SUNNY     59  31  34 NE14      29.99R
6HR MIN TEMP:  59; 6HR MAX TEMP:  63;

RED OAK *      SUNNY     61  36  39 NE13      30.00S
SHENANDOAH *   SUNNY     61  34  36 NE15      30.00R
$$

IAZ047>049-059>061-072>074-084-270100-
   CENTRAL IOWA

CITY           SKY/WX    TMP DP  RH WIND       PRES   REMARKS
AMES           SUNNY     60  29  30 NE9       30.02R
6HR MIN TEMP:  58; 6HR MAX TEMP:  62;

ANKENY *       SUNNY     61  30  31 NE10      30.01S
CHARITON *     SUNNY     57  32  38 NE12G22   30.00S
DES MOINES     SUNNY     62  26  25 NE12      30.01S
6HR MIN TEMP:  60; 6HR MAX TEMP:  64;

GRINNELL*      SUNNY     59  28  31 NE7       30.02R
KNOXVILLE *    SUNNY     59  30  33 NE9       30.00R
MARSHALLTOWN   SUNNY     59  28  30 NE13      30.02R
6HR MIN TEMP:  58; 6HR MAX TEMP:  62;

PELLA *        SUNNY     59  35  39 E7        30.02S
PERRY *          N/A     60  30  31 NE10      30.02S
$$

IAZ004>006-015-016-023>025-035-036-270100-
   NORTH CENTRAL IOWA

CITY           SKY/WX    TMP DP  RH WIND       PRES   REMARKS
ALGONA *       SUNNY     61  30  31 NE12      30.04F
CLARION *      SUNNY     61  27  27 NE14      30.04S
ESTHERVILLE    SUNNY     61  30  31 NE15      30.03S
6HR MIN TEMP:  59; 6HR MAX TEMP:  64;

FORT DODGE *   SUNNY     61  30  31 NE9       30.04S
MASON CITY     SUNNY     59  26  28 NE12      30.06R
6HR MIN TEMP:  57; 6HR MAX TEMP:  62;

FOREST CITY *  SUNNY     57  30  35 NE7       30.05S
IOWA FALLS *     N/A     59  27  29 NE8       30.04S
$$

IAZ007>011-017>019-026>030-037>042-050>054-066-270100-
   NORTHEAST IOWA

CITY           SKY/WX    TMP DP  RH WIND       PRES   REMARKS
CEDAR RAPIDS   CLEAR     58  31  35 NE7       30.00S
6HR MIN TEMP:  55; 6HR MAX TEMP:  60;

CHARLES CITY * SUNNY     59  25  27 NE10      30.05S
CLINTON *      CLEAR     57  32  38 N10       30.03S
DECORAH *      SUNNY     59  25  27 N8        30.03S
DUBUQUE        CLEAR     57  29  34 NE9       30.02S
6HR MIN TEMP:  55; 6HR MAX TEMP:  60;

MONTICELLO *   CLEAR     59  30  33 NE8       30.02R
OELWEIN *      SUNNY     59  27  29 N10       30.04R
WATERLOO       SUNNY     59  25  27 N12       30.02S
6HR MIN TEMP:  57; 6HR MAX TEMP:  62;

$$

IAZ064-065-067-068-078-270100-
   EAST CENTRAL IOWA

CITY           SKY/WX    TMP DP  RH WIND       PRES   REMARKS
DAVENPORT      CLEAR     56  32  40 NE10      30.01S
6HR MIN TEMP:  55; 6HR MAX TEMP:  59;

IOWA CITY      CLEAR     58  32  37 NE10      30.02S
6HR MIN TEMP:  55; 6HR MAX TEMP:  60;

MT. PLEASANT * CLEAR     57  29  33 NE10      30.00S
MUSCATINE *    CLEAR     59  32  36 NE6       30.01S
QUAD CITIES    CLEAR     58  31  35 NE10      30.00S
6HR MIN TEMP:  57; 6HR MAX TEMP:  61;

$$

IAZ062-063-075>077-085>089-095>099-270100-
   SOUTHEAST IOWA

CITY           SKY/WX    TMP DP  RH WIND       PRES   REMARKS
BURLINGTON     CLEAR     58  32  37 NE10      29.99S
6HR MIN TEMP:  57; 6HR MAX TEMP:  61;

FAIRFIELD *    CLEAR     57  32  38 NE10      30.01R
FORT MADISON *   N/A     57  32  38 NE9       30.00S
KEOKUK *       CLEAR     59  32  36 NE8G14    29.98S
OSKALOOSA *      N/A     58  32  36 NE9       30.01S
CENTERVILLE *  SUNNY     57  32  38 NE8       30.01R
OTTUMWA        SUNNY     58  33  39 NE9       30.00S
6HR MIN TEMP:  56; 6HR MAX TEMP:  60;

WASHINGTON *   CLEAR     59  34  38 NE12      30.01S
$$

ABBREVIATIONS USED IN REMARKS
   TC - TEMPERATURES IN CELSIUS
  WCI - WIND CHILL INDEX
   HX - HEAT INDEX
  VSB - VISIBILITY
$$




USA.gov is the U.S. government's official web portal to all federal, state and local government web resources and services.